Regional Weather Roundup
Issued by NWS Charleston, SC

Current Version | Previous Version | Text Only | Print | Product List | Glossary Off
Versions: 1 2 3 4 5 6 7 8 9 10 11 12 13 14 15 16 17 18 19 20 21 22 23 24 25 26 27 28 29 30 31 32 33 34 35 36 37 38 39 40 41 42 43 44 45 46 47 48 49 50
000 ASUS42 KCHS 151211 RWRCHS Regional Weather Roundup National Weather Service Charleston SC 800 AM EDT TUE JUN 15 2021 NOTE: "fair" indicates few or no clouds below 12,000 feet with no significant weather and/or obstructions to visibility. Not all stations are quality controlled. Use data with caution, especially dewpoint observations. SCZ027-030-031-034>040-042>050-151300- ...Southeast South Carolina... CITY SKY/WX TMP DP RH WIND PRES REMARKS N Charleston MOSUNNY 77 72 84 SW9 29.84S 6HR MIN TEMP: 73; 6HR MAX TEMP: 77; Waterfront Prk N/A 79 74 85 VRB3 29.69S Mount Pleasant FAIR 79 75 89 CALM 29.84S FOG Johns Island FAIR 79 75 89 SW7 29.85R Pinopolis N/A 75 73 94 SW10 29.76S Moncks Corner FAIR 77 73 88 SW6 29.83F Summerville FAIR 77 75 94 VRB5 29.83S Beaufort MCAS MOSUNNY 79 73 82 SW9 29.86R 6HR MIN TEMP: 75; 6HR MAX TEMP: 79; Beaufort Arpt FAIR 79 72 78 SW6 29.86S Hilton Head Is SUNNY 79 73 83 SW6 29.87S Walterboro SUNNY 75 72 88 SW8 29.85S Allendale FAIR 77 73 88 CALM 29.84S ...Southern Midlands and Pee Dee... CITY SKY/WX TMP DP RH WIND PRES REMARKS Georgetown FAIR 75 72 88 SW6 29.85S Kingstree FAIR 75 72 88 CALM 29.83S Orangeburg SUNNY 76 74 93 W6 29.84R 6HR MIN TEMP: 72; 6HR MAX TEMP: 76; Barnwell FAIR 77 73 88 W3 29.85S Aiken FAIR 75 72 89 SW6 29.87S Manning FAIR 75 72 88 W7 29.83S Columbia MOSUNNY 75 71 87 SW5 29.83S 6HR MIN TEMP: 72; 6HR MAX TEMP: 75; Sumter SUNNY 77 73 87 SW10 29.82S 6HR MIN TEMP: 73; 6HR MAX TEMP: 77; Florence SUNNY 78 72 81 W8 29.83R 6HR MIN TEMP: 75; 6HR MAX TEMP: 78; Myrtle Beach SUNNY 78 73 84 W8 29.83S N Myrtle Beach SUNNY 77 72 84 W7 29.81F 6HR MIN TEMP: 74; 6HR MAX TEMP: 77; 6HR PCP: TRACE; $$ GAZ063-065-086>088-099>101-113>116-118-119-134>141-150-151300- ...Southeast Georgia... CITY SKY/WX TMP DP RH WIND PRES REMARKS Savannah Arpt MOSUNNY 76 73 91 SW8 29.87S 6HR MIN TEMP: 72; 6HR MAX TEMP: 76; Hunter AAF SUNNY 77 74 90 SW7 29.84F 6HR MIN TEMP: 74; 6HR MAX TEMP: 77; Fort Stewart SUNNY 77 73 87 SW7 29.85S 6HR MIN TEMP: 73; 6HR MAX TEMP: 77; Statesboro SUNNY 77 71 81 W6 29.87S Sylvania SUNNY 76 73 87 W5 29.86S Claxton FAIR 78 74 85 CALM 29.87S Millen FAIR 77 71 82 W5 29.86S Metter FAIR 77 74 92 SW6 29.87S Reidsville FAIR 76 72 89 SW5 29.88S ...CSRA, Central and far Southeast Georgia... CITY SKY/WX TMP DP RH WIND PRES REMARKS Thomson SUNNY 74 71 89 W3 29.87S Augusta-Bush SUNNY 77 71 82 W6 29.84S 6HR MIN TEMP: 72; 6HR MAX TEMP: 77; Augusta-Daniel SUNNY 78 69 73 W3 29.86R Swainsboro FAIR 77 70 78 NW7 29.89S Vidalia SUNNY 77 72 83 W5 29.89R Eastman FAIR 77 72 84 NW3 29.90S Hazlehurst FAIR 77 72 83 CALM 29.89S Alma SUNNY 76 73 91 SW6 29.90R 6HR MIN TEMP: 73; 6HR MAX TEMP: 76; Waycross SUNNY 77 76 96 W7 29.91R Jesup FAIR 77 72 83 CALM 29.92R Baxley FAIR 73 73 100 W3 29.89S Brunswick SUNNY 77 74 91 SW8 29.89R Saint Simons MOSUNNY 78 76 93 W9 29.89R 6HR MIN TEMP: 76; 6HR MAX TEMP: 78; $$ SCZ027-028-034-036>038-045-046-048>050-GAZ119-141-151300- ...Lake and Supplemental Coastal Observations... STATION/POSITION TIME TEMP WIND PRES WAVE SWELL AIR SEA DIR/SP/G HT/PER HT/PER/DIR (UTC) (F) (DEG/KT/KT) (MB) (FT/S) (FT/S/D) Winyah Bay 1045 75 260/ 5 1010.0 Lake Murray 1120 76 280/ 4/ 7 N/A Chrlstn Harbor 1130 79 80 230/ 5/ 7 1010.7S ACE Basin NERRS 1045 75 CALM 1011.0 Fort Pulaski 1130 77 80 1011.8S Sapelo Island 1100 76 240/ 8 1012.0 $$ ANZ835-935-AMZ111-154-330-350-352-354-370-450-454-472-151300- ...C-MAN and Buoy Observations... STATION/POSITION TIME TEMP WIND PRES WAVE SWELL AIR SEA DIR/SP/G HT/PER HT/PER/DIR (UTC) (F) (DEG/KT/KT) (MB) (FT/S) (FT/S/D) Buoy 41004 NOT AVBL Buoy 41008 1150 78 79 260/ 10/ 12 1011.4R 2/ 4 2/ 90/ 9 Folly Beach CMAN 1200 79 240/ 7/ 10 1011.1R Capers Nearshore NOT AVBL Fripp Nearshore 1108 79 80 230/ 10/ 16 1010.3R STATION/POSITION TIME TEMP WIND PRES WAVE SWELL AIR SEA DIR/SP/G HT/PER HT/PER/DIR (UTC) (F) (DEG/KT/KT) (MB) (FT/S) (FT/S/D) 5E St. Marys GA 1130 77 79 N/A 2/ 9 2/100/11 Frying Pan Buoy 1150 77 250/ 10/ 12 1009.7S 3/ 4 2/100/ 9 Buoy 41025 NOT AVBL Cape Lookout NC 1200 78 220/ 9/ 12 1009.6S Buoy 41002 1150 75 78 210/ 19/ 23 1011.7R 6/ 6 2/ 50/11 Buoy 41010 1150 79 250/ 17/ 25 1014.5R 7/ 6 2/150/11 St Augustine FL 1200 77 80 230/ 9/ 12 1013.9R $$

USA.gov is the U.S. government's official web portal to all federal, state and local government web resources and services.